Year,Month,Day,Hour,Minute,Value (Times are PST for temperature in C)
2019,10,20,00,00,5.50
2019,10,20,00,01,5.50
2019,10,20,00,02,5.50
2019,10,20,00,03,5.50
2019,10,20,00,04,5.50
2019,10,20,00,05,5.50
2019,10,20,00,06,5.60
2019,10,20,00,07,5.60
2019,10,20,00,08,5.60
2019,10,20,00,09,5.60
2019,10,20,00,10,5.60
2019,10,20,00,11,5.60
2019,10,20,00,12,5.60
2019,10,20,00,13,5.60
2019,10,20,00,14,5.60
2019,10,20,00,15,5.60
2019,10,20,00,16,5.60
2019,10,20,00,17,5.60
2019,10,20,00,18,5.60
2019,10,20,00,19,5.60
2019,10,20,00,20,5.50
2019,10,20,00,21,5.50
2019,10,20,00,22,5.50
2019,10,20,00,23,5.50
2019,10,20,00,24,5.50
2019,10,20,00,25,5.40
2019,10,20,00,26,5.40
2019,10,20,00,27,5.40
2019,10,20,00,28,5.40
2019,10,20,00,29,5.40
2019,10,20,00,30,5.40
2019,10,20,00,31,5.30
2019,10,20,00,32,5.30
2019,10,20,00,33,5.30
2019,10,20,00,34,5.30
2019,10,20,00,35,5.30
2019,10,20,00,36,5.30
2019,10,20,00,37,5.30
2019,10,20,00,38,5.20
2019,10,20,00,39,5.20
2019,10,20,00,40,5.20
2019,10,20,00,41,5.20
2019,10,20,00,42,5.20
2019,10,20,00,43,5.20
2019,10,20,00,44,5.10
2019,10,20,00,45,5.10
2019,10,20,00,46,5.10
2019,10,20,00,47,5.10
2019,10,20,00,48,5.10
2019,10,20,00,49,5.00
2019,10,20,00,50,5.00
2019,10,20,00,51,5.00
2019,10,20,00,52,5.00
2019,10,20,00,53,5.00
2019,10,20,00,54,5.00
2019,10,20,00,55,5.00
2019,10,20,00,56,4.90
2019,10,20,00,57,4.90
2019,10,20,00,58,4.90
2019,10,20,00,59,4.90
2019,10,20,01,00,4.90
2019,10,20,01,01,4.90
2019,10,20,01,02,4.90
2019,10,20,01,03,4.90
2019,10,20,01,04,4.80
2019,10,20,01,05,4.80
2019,10,20,01,06,4.80
2019,10,20,01,07,4.80
2019,10,20,01,08,4.80
2019,10,20,01,09,4.80
2019,10,20,01,10,4.80
2019,10,20,01,11,4.80
2019,10,20,01,12,4.80
2019,10,20,01,13,4.70
2019,10,20,01,14,4.70
2019,10,20,01,15,4.70
2019,10,20,01,16,4.70
2019,10,20,01,17,4.70
2019,10,20,01,18,4.70
2019,10,20,01,19,4.70
2019,10,20,01,20,4.60
2019,10,20,01,21,4.60
2019,10,20,01,22,4.60
2019,10,20,01,23,4.60
2019,10,20,01,24,4.60
2019,10,20,01,25,4.60
2019,10,20,01,26,4.60
2019,10,20,01,27,4.60
2019,10,20,01,28,4.60
2019,10,20,01,29,4.60
2019,10,20,01,30,4.60
2019,10,20,01,31,4.60
2019,10,20,01,32,4.60
2019,10,20,01,33,4.60
2019,10,20,01,34,4.60
2019,10,20,01,35,4.60
2019,10,20,01,36,4.60
2019,10,20,01,37,4.70
2019,10,20,01,38,4.70
2019,10,20,01,39,4.70
2019,10,20,01,40,4.70
2019,10,20,01,41,4.80
2019,10,20,01,42,4.80
2019,10,20,01,43,4.80
2019,10,20,01,44,4.80
2019,10,20,01,45,4.80
2019,10,20,01,46,4.80
2019,10,20,01,47,4.80
2019,10,20,01,48,4.80
2019,10,20,01,49,4.80
2019,10,20,01,50,4.80
2019,10,20,01,51,4.80
2019,10,20,01,52,4.80
2019,10,20,01,53,4.80
2019,10,20,01,54,4.80
2019,10,20,01,55,4.80
2019,10,20,01,56,4.80
2019,10,20,01,57,4.80
2019,10,20,01,58,4.80
2019,10,20,01,59,4.80
2019,10,20,02,00,4.80
2019,10,20,02,01,4.80
2019,10,20,02,02,4.80
2019,10,20,02,03,4.80
2019,10,20,02,04,4.80
2019,10,20,02,05,4.80
2019,10,20,02,06,4.80
2019,10,20,02,07,4.80
2019,10,20,02,08,4.80
2019,10,20,02,09,4.80
2019,10,20,02,10,4.80
2019,10,20,02,11,4.80
2019,10,20,02,12,4.80
2019,10,20,02,13,4.80
2019,10,20,02,14,4.80
2019,10,20,02,15,4.80
2019,10,20,02,16,4.80
2019,10,20,02,17,4.80
2019,10,20,02,18,4.80
2019,10,20,02,19,4.80
2019,10,20,02,20,4.80
2019,10,20,02,21,4.80
2019,10,20,02,22,4.80
2019,10,20,02,23,4.80
2019,10,20,02,24,4.80
2019,10,20,02,25,4.90
2019,10,20,02,26,4.90
2019,10,20,02,27,4.90
2019,10,20,02,28,4.90
2019,10,20,02,29,4.90
2019,10,20,02,30,4.90
2019,10,20,02,31,4.90
2019,10,20,02,32,4.90
2019,10,20,02,33,4.90
2019,10,20,02,34,4.90
2019,10,20,02,35,4.90
2019,10,20,02,36,4.90
2019,10,20,02,37,5.00
2019,10,20,02,38,5.00
2019,10,20,02,39,5.00
2019,10,20,02,40,5.00
2019,10,20,02,41,5.00
2019,10,20,02,42,5.00
2019,10,20,02,43,5.00
2019,10,20,02,44,5.00
2019,10,20,02,45,5.00
2019,10,20,02,46,5.10
2019,10,20,02,47,5.10
2019,10,20,02,48,5.10
2019,10,20,02,49,5.10
2019,10,20,02,50,5.00
2019,10,20,02,51,5.00
2019,10,20,02,52,5.00
2019,10,20,02,53,5.00
2019,10,20,02,54,5.00
2019,10,20,02,55,5.00
2019,10,20,02,56,5.00
2019,10,20,02,57,5.00
2019,10,20,02,58,5.00
2019,10,20,02,59,5.00
2019,10,20,03,00,5.00
2019,10,20,03,01,5.00
2019,10,20,03,02,5.00
2019,10,20,03,03,5.00
2019,10,20,03,04,5.00
2019,10,20,03,05,5.00
2019,10,20,03,06,5.10
2019,10,20,03,07,5.10
2019,10,20,03,08,5.10
2019,10,20,03,09,5.10
2019,10,20,03,10,5.10
2019,10,20,03,11,5.10
2019,10,20,03,12,5.10
2019,10,20,03,13,5.20
2019,10,20,03,14,5.20
2019,10,20,03,15,5.10
2019,10,20,03,16,5.10
2019,10,20,03,17,5.10
2019,10,20,03,18,5.10
2019,10,20,03,19,5.10
2019,10,20,03,20,5.10
2019,10,20,03,21,5.10
2019,10,20,03,22,5.10
2019,10,20,03,23,5.10
2019,10,20,03,24,5.10
2019,10,20,03,25,5.10
2019,10,20,03,26,5.10
2019,10,20,03,27,5.10
2019,10,20,03,28,5.10
2019,10,20,03,29,5.10
2019,10,20,03,30,5.10
2019,10,20,03,31,5.10
2019,10,20,03,32,5.10
2019,10,20,03,33,5.10
2019,10,20,03,34,5.10
2019,10,20,03,35,5.10
2019,10,20,03,36,5.10
2019,10,20,03,37,5.10
2019,10,20,03,38,5.10
2019,10,20,03,39,5.10
2019,10,20,03,40,5.10
2019,10,20,03,41,5.10
2019,10,20,03,42,5.10
2019,10,20,03,43,5.20
2019,10,20,03,44,5.20
2019,10,20,03,45,5.20
2019,10,20,03,46,5.20
2019,10,20,03,47,5.20
2019,10,20,03,48,5.20
2019,10,20,03,49,5.20
2019,10,20,03,50,5.20
2019,10,20,03,51,5.20
2019,10,20,03,52,5.20
2019,10,20,03,53,5.10
2019,10,20,03,54,5.10
2019,10,20,03,55,5.10
2019,10,20,03,56,5.10
2019,10,20,03,57,5.10
2019,10,20,03,58,5.10
2019,10,20,03,59,5.10
2019,10,20,04,00,5.10
2019,10,20,04,01,5.10
2019,10,20,04,02,5.10
2019,10,20,04,03,5.20
2019,10,20,04,04,5.20
2019,10,20,04,05,5.20
2019,10,20,04,06,5.20
2019,10,20,04,07,5.30
2019,10,20,04,08,5.30
2019,10,20,04,09,5.30
2019,10,20,04,10,5.40
2019,10,20,04,11,5.40
2019,10,20,04,12,5.50
2019,10,20,04,13,5.50
2019,10,20,04,14,5.60
2019,10,20,04,15,5.60
2019,10,20,04,16,5.60
2019,10,20,04,17,5.60
2019,10,20,04,18,5.60
2019,10,20,04,19,5.60
2019,10,20,04,20,5.60
2019,10,20,04,21,5.60
2019,10,20,04,22,5.60
2019,10,20,04,23,5.60
2019,10,20,04,24,5.60
2019,10,20,04,25,5.60
2019,10,20,04,26,5.60
2019,10,20,04,27,5.60
2019,10,20,04,28,5.60
2019,10,20,04,29,5.60
2019,10,20,04,30,5.60
2019,10,20,04,31,5.60
2019,10,20,04,32,5.50
2019,10,20,04,33,5.50
2019,10,20,04,34,5.50
2019,10,20,04,35,5.50
2019,10,20,04,36,5.50
2019,10,20,04,37,5.50
2019,10,20,04,38,5.40
2019,10,20,04,39,5.40
2019,10,20,04,40,5.40
2019,10,20,04,41,5.40
2019,10,20,04,42,5.40
2019,10,20,04,43,5.40
2019,10,20,04,44,5.40
2019,10,20,04,45,5.40
2019,10,20,04,46,5.40
2019,10,20,04,47,5.40
2019,10,20,04,48,5.40
2019,10,20,04,49,5.40
2019,10,20,04,50,5.40
2019,10,20,04,51,5.40
2019,10,20,04,52,5.40
2019,10,20,04,53,5.40
2019,10,20,04,54,5.50
2019,10,20,04,55,5.50
2019,10,20,04,56,5.50
2019,10,20,04,57,5.50
2019,10,20,04,58,5.50
2019,10,20,04,59,5.50
2019,10,20,05,00,5.50
2019,10,20,05,01,5.50
2019,10,20,05,02,5.50
2019,10,20,05,03,5.50
2019,10,20,05,04,5.50
2019,10,20,05,05,5.50
2019,10,20,05,06,5.50
2019,10,20,05,07,5.50
2019,10,20,05,08,5.50
2019,10,20,05,09,5.50
2019,10,20,05,10,5.60
2019,10,20,05,11,5.60
2019,10,20,05,12,5.60
2019,10,20,05,13,5.60
2019,10,20,05,14,5.60
2019,10,20,05,15,5.60
2019,10,20,05,16,5.60
2019,10,20,05,17,5.70
2019,10,20,05,18,5.70
2019,10,20,05,19,5.70
2019,10,20,05,20,5.70
2019,10,20,05,21,5.70
2019,10,20,05,22,5.70
2019,10,20,05,23,5.70
2019,10,20,05,24,5.70
2019,10,20,05,25,5.70
2019,10,20,05,26,5.70
2019,10,20,05,27,5.70
2019,10,20,05,28,5.80
2019,10,20,05,29,5.80
2019,10,20,05,30,5.80
2019,10,20,05,31,5.80
2019,10,20,05,32,5.90
2019,10,20,05,33,5.90
2019,10,20,05,34,5.90
2019,10,20,05,35,5.90
2019,10,20,05,36,6.00
2019,10,20,05,37,6.00
2019,10,20,05,38,6.00
2019,10,20,05,39,6.00
2019,10,20,05,40,6.00
2019,10,20,05,41,6.10
2019,10,20,05,42,6.10
2019,10,20,05,43,6.10
2019,10,20,05,44,6.10
2019,10,20,05,45,6.20
2019,10,20,05,46,6.20
2019,10,20,05,47,6.30
2019,10,20,05,48,6.40
2019,10,20,05,49,6.40
2019,10,20,05,50,6.50
2019,10,20,05,51,6.50
2019,10,20,05,52,6.60
2019,10,20,05,53,6.60
2019,10,20,05,54,6.60
2019,10,20,05,55,6.60
2019,10,20,05,56,6.70
2019,10,20,05,57,6.70
2019,10,20,05,58,6.70
2019,10,20,05,59,6.70
2019,10,20,06,00,6.70
2019,10,20,06,01,6.70
2019,10,20,06,02,6.70
2019,10,20,06,03,6.70
2019,10,20,06,04,6.70
2019,10,20,06,05,6.80
2019,10,20,06,06,6.70
2019,10,20,06,07,6.70
2019,10,20,06,08,6.70
2019,10,20,06,09,6.70
2019,10,20,06,10,6.70
2019,10,20,06,11,6.70
2019,10,20,06,12,6.70
2019,10,20,06,13,6.70
2019,10,20,06,14,6.70
2019,10,20,06,15,6.70
2019,10,20,06,16,6.70
2019,10,20,06,17,6.70
2019,10,20,10,49,8.70
2019,10,20,10,50,8.70
2019,10,20,10,51,8.70
2019,10,20,10,52,8.70
2019,10,20,10,53,8.70
2019,10,20,10,54,8.70
2019,10,20,10,55,8.70
2019,10,20,10,56,8.70
2019,10,20,10,57,8.60
2019,10,20,10,58,8.60
2019,10,20,10,59,8.60
2019,10,20,11,00,8.60
2019,10,20,11,01,8.60
2019,10,20,11,02,8.60
2019,10,20,11,03,8.60
2019,10,20,11,04,8.60
2019,10,20,11,05,8.60
2019,10,20,11,06,8.60
2019,10,20,11,07,8.60
2019,10,20,11,08,8.60
2019,10,20,11,09,8.60
2019,10,20,11,10,8.60
2019,10,20,11,11,8.60
2019,10,20,11,12,8.60
2019,10,20,11,13,8.50
2019,10,20,11,14,8.50
2019,10,20,11,15,8.50
2019,10,20,11,16,8.50
2019,10,20,11,17,8.50
2019,10,20,11,18,8.50
2019,10,20,11,19,8.50
2019,10,20,11,20,8.50
2019,10,20,11,21,8.50
2019,10,20,11,22,8.50
2019,10,20,11,23,8.40
2019,10,20,11,24,8.40
2019,10,20,11,25,8.40
2019,10,20,11,26,8.40
2019,10,20,11,27,8.40
2019,10,20,11,28,8.40
2019,10,20,11,29,8.40
2019,10,20,11,30,8.40
2019,10,20,11,31,8.40
2019,10,20,11,32,8.40
2019,10,20,11,33,8.40
2019,10,20,11,34,8.40
2019,10,20,11,35,8.40
2019,10,20,11,36,8.40
2019,10,20,11,37,8.40
2019,10,20,11,38,8.40
2019,10,20,11,39,8.40
2019,10,20,11,40,8.40
2019,10,20,11,41,8.40
2019,10,20,11,42,8.40
2019,10,20,11,43,8.40
2019,10,20,11,44,8.40
2019,10,20,11,45,8.40
2019,10,20,11,46,8.40
2019,10,20,11,47,8.40
2019,10,20,11,48,8.40
2019,10,20,11,49,8.40
2019,10,20,11,50,8.40
2019,10,20,11,51,8.40
2019,10,20,11,52,8.40
2019,10,20,11,53,8.40
2019,10,20,11,54,8.40
2019,10,20,11,55,8.50
2019,10,20,11,56,8.50
2019,10,20,11,57,8.50
2019,10,20,11,58,8.50
2019,10,20,11,59,8.50
2019,10,20,12,00,8.60
2019,10,20,12,01,8.60
2019,10,20,12,02,8.60
2019,10,20,12,03,8.60
2019,10,20,12,04,8.60
2019,10,20,12,05,8.60
2019,10,20,12,06,8.60
2019,10,20,12,07,8.60
2019,10,20,12,08,8.60
2019,10,20,12,09,8.60
2019,10,20,12,10,8.60
2019,10,20,12,11,8.60
2019,10,20,12,12,8.60
2019,10,20,12,13,8.60
2019,10,20,12,14,8.60
2019,10,20,12,15,8.60
2019,10,20,12,16,8.60
2019,10,20,12,17,8.60
2019,10,20,12,18,8.70
2019,10,20,12,19,8.70
2019,10,20,12,20,8.70
2019,10,20,12,21,8.70
2019,10,20,12,22,8.70
2019,10,20,12,23,8.70
2019,10,20,12,24,8.70
2019,10,20,12,25,8.70
2019,10,20,12,26,8.80
2019,10,20,12,27,8.80
2019,10,20,12,28,8.80
2019,10,20,12,29,8.80
2019,10,20,12,30,8.80
2019,10,20,12,31,8.90
2019,10,20,12,32,8.90
2019,10,20,12,33,8.90
2019,10,20,12,34,8.90
2019,10,20,12,35,8.90
2019,10,20,12,36,8.90
2019,10,20,12,37,8.90
2019,10,20,12,38,8.90
2019,10,20,12,39,8.90
2019,10,20,12,40,8.90
2019,10,20,12,41,8.90
2019,10,20,12,42,8.90
2019,10,20,12,43,8.90
2019,10,20,12,44,8.90
2019,10,20,12,45,8.90
2019,10,20,12,46,8.90
2019,10,20,12,47,8.90
2019,10,20,12,48,8.90
2019,10,20,12,49,8.80
2019,10,20,12,50,8.90
2019,10,20,12,51,8.80
2019,10,20,12,52,8.80
2019,10,20,12,53,8.80
2019,10,20,12,54,8.80
2019,10,20,12,55,8.80
2019,10,20,12,56,8.80
2019,10,20,12,57,8.80
2019,10,20,12,58,8.80
2019,10,20,12,59,8.80
2019,10,20,13,00,8.80
2019,10,20,13,01,8.80
2019,10,20,13,02,8.80
2019,10,20,13,03,8.90
2019,10,20,13,04,8.90
2019,10,20,13,05,8.90
2019,10,20,13,06,8.90
2019,10,20,13,07,8.90
2019,10,20,13,08,8.90
2019,10,20,13,09,8.90
2019,10,20,13,10,8.90
2019,10,20,13,11,8.90
2019,10,20,13,12,8.90
2019,10,20,13,13,8.90
2019,10,20,13,14,8.90
2019,10,20,13,15,8.90
2019,10,20,13,16,8.90
2019,10,20,13,17,8.90
2019,10,20,13,18,8.90
2019,10,20,13,19,8.90
2019,10,20,13,20,8.90
2019,10,20,13,21,8.90
2019,10,20,13,22,8.90
2019,10,20,13,23,8.90
2019,10,20,13,24,8.90
2019,10,20,13,25,8.90
2019,10,20,13,26,8.90
2019,10,20,13,27,9.00
2019,10,20,13,28,9.00
2019,10,20,13,29,9.00
2019,10,20,13,30,9.00
2019,10,20,13,31,9.00
2019,10,20,13,32,9.00
2019,10,20,13,33,9.00
2019,10,20,13,34,9.00
2019,10,20,13,35,8.90
2019,10,20,13,36,8.90
2019,10,20,13,37,8.90
2019,10,20,13,38,9.00
2019,10,20,13,39,9.00
2019,10,20,13,40,9.00
2019,10,20,13,41,9.00
2019,10,20,13,42,9.00
2019,10,20,13,43,9.00
2019,10,20,13,44,9.00
2019,10,20,13,45,9.10
2019,10,20,13,46,9.10
2019,10,20,13,47,9.10
2019,10,20,13,48,9.10
2019,10,20,13,49,9.10
2019,10,20,13,50,9.10
2019,10,20,13,51,9.10
2019,10,20,13,52,9.10
2019,10,20,13,53,9.10
2019,10,20,13,54,9.10
2019,10,20,13,55,9.10
2019,10,20,13,56,9.10
2019,10,20,13,57,9.20
2019,10,20,13,58,9.20
2019,10,20,13,59,9.20
2019,10,20,14,00,9.20
2019,10,20,14,01,9.20
2019,10,20,14,02,9.20
2019,10,20,14,03,9.20
2019,10,20,14,04,9.20
2019,10,20,14,05,9.20
2019,10,20,14,06,9.20
2019,10,20,14,07,9.20
2019,10,20,14,08,9.20
2019,10,20,14,09,9.20
2019,10,20,14,10,9.20
2019,10,20,14,11,9.20
2019,10,20,14,12,9.20
2019,10,20,14,13,9.20
2019,10,20,14,14,9.20
2019,10,20,14,15,9.20
2019,10,20,14,16,9.20
2019,10,20,14,17,9.20
2019,10,20,14,18,9.20
2019,10,20,14,19,9.20
2019,10,20,14,20,9.30
2019,10,20,14,21,9.30
2019,10,20,14,22,9.30
2019,10,20,14,23,9.30
2019,10,20,14,24,9.30
2019,10,20,14,25,9.30
2019,10,20,14,26,9.30
2019,10,20,14,27,9.30
2019,10,20,14,28,9.30
2019,10,20,14,29,9.20
2019,10,20,14,30,9.30
2019,10,20,14,31,9.30
2019,10,20,14,32,9.30
2019,10,20,14,33,9.30
2019,10,20,14,34,9.30
2019,10,20,14,35,9.30
2019,10,20,14,36,9.30
2019,10,20,14,37,9.30
2019,10,20,14,38,9.30
2019,10,20,14,39,9.30
2019,10,20,14,40,9.30
2019,10,20,14,41,9.30
2019,10,20,14,42,9.30
2019,10,20,14,43,9.30
2019,10,20,14,44,9.30
2019,10,20,14,45,9.30
2019,10,20,14,46,9.30
2019,10,20,14,47,9.30
2019,10,20,14,48,9.30
2019,10,20,14,49,9.30
2019,10,20,14,50,9.30
2019,10,20,14,51,9.30
2019,10,20,14,52,9.30
2019,10,20,14,53,9.30
2019,10,20,14,54,9.30
2019,10,20,14,55,9.30
2019,10,20,14,56,9.30
2019,10,20,14,57,9.30
2019,10,20,14,58,9.30
2019,10,20,14,59,9.30
2019,10,20,15,00,9.30
2019,10,20,15,01,9.30
2019,10,20,15,02,9.30
2019,10,20,15,03,9.30
2019,10,20,15,04,9.30
2019,10,20,15,05,9.30
2019,10,20,15,06,9.30
2019,10,20,15,07,9.30
2019,10,20,15,08,9.30
2019,10,20,15,09,9.30
2019,10,20,15,10,9.30
2019,10,20,15,11,9.30
2019,10,20,15,12,9.30
2019,10,20,15,13,9.30
2019,10,20,15,14,9.30
2019,10,20,15,15,9.30
2019,10,20,15,16,9.30
2019,10,20,15,17,9.30
2019,10,20,15,18,9.30
2019,10,20,15,19,9.30
2019,10,20,15,20,9.30
2019,10,20,15,21,9.30
2019,10,20,15,22,9.40
2019,10,20,15,23,9.40
2019,10,20,15,24,9.40
2019,10,20,15,25,9.40
2019,10,20,15,26,9.40
2019,10,20,15,27,9.40
2019,10,20,15,28,9.40
2019,10,20,15,29,9.40
2019,10,20,15,30,9.40
2019,10,20,15,31,9.40
2019,10,20,15,32,9.40
2019,10,20,15,33,9.40
2019,10,20,15,34,9.40
2019,10,20,15,35,9.40
2019,10,20,15,36,9.40
2019,10,20,15,37,9.40
2019,10,20,15,38,9.40
2019,10,20,15,39,9.40
2019,10,20,15,40,9.40
2019,10,20,15,41,9.40
2019,10,20,15,42,9.50
2019,10,20,15,43,9.50
2019,10,20,15,44,9.50
2019,10,20,15,45,9.50
2019,10,20,15,46,9.50
2019,10,20,15,47,9.60
2019,10,20,15,48,9.60
2019,10,20,15,49,9.60
2019,10,20,15,50,9.60
2019,10,20,15,51,9.60
2019,10,20,15,52,9.60
2019,10,20,15,53,9.60
2019,10,20,15,54,9.60
2019,10,20,15,55,9.60
2019,10,20,15,56,9.60
2019,10,20,15,57,9.60
2019,10,20,15,58,9.60
2019,10,20,15,59,9.60
2019,10,20,16,00,9.60
2019,10,20,16,01,9.60
2019,10,20,16,02,9.60
2019,10,20,16,03,9.60
2019,10,20,16,04,9.60
2019,10,20,16,05,9.60
2019,10,20,16,06,9.60
2019,10,20,16,07,9.60
2019,10,20,16,08,9.50
2019,10,20,16,09,9.50
2019,10,20,16,10,9.50
2019,10,20,16,11,9.50
2019,10,20,16,12,9.40
2019,10,20,16,13,9.40
2019,10,20,16,14,9.40
2019,10,20,16,15,9.40
2019,10,20,16,16,9.40
2019,10,20,16,17,9.40
2019,10,20,16,18,9.40
2019,10,20,16,19,9.40
2019,10,20,16,20,9.40
2019,10,20,16,21,9.40
2019,10,20,16,22,9.40
2019,10,20,16,23,9.30
2019,10,20,16,24,9.20
2019,10,20,16,25,9.20
2019,10,20,16,26,9.10
2019,10,20,16,27,9.10
2019,10,20,16,28,9.10
2019,10,20,16,29,9.00
2019,10,20,16,30,9.00
2019,10,20,16,31,9.00
2019,10,20,16,32,8.90
2019,10,20,16,33,8.90
2019,10,20,16,34,8.90
2019,10,20,16,35,9.00
2019,10,20,16,36,9.00
2019,10,20,16,37,9.00
2019,10,20,16,38,9.00
2019,10,20,16,39,9.00
2019,10,20,16,40,9.00
2019,10,20,16,41,9.00
2019,10,20,16,42,9.00
2019,10,20,16,43,9.00
2019,10,20,16,44,9.00
2019,10,20,16,45,9.00
2019,10,20,16,46,9.00
2019,10,20,16,47,9.00
2019,10,20,16,48,9.00
2019,10,20,16,49,9.00
2019,10,20,16,50,9.00
2019,10,20,16,51,9.00
2019,10,20,16,52,9.10
2019,10,20,16,53,9.00
2019,10,20,16,54,9.10
2019,10,20,16,55,9.10
2019,10,20,16,56,9.10
2019,10,20,16,57,9.10
2019,10,20,16,58,9.10
2019,10,20,16,59,9.10
2019,10,20,17,00,9.10
2019,10,20,17,01,9.10
2019,10,20,17,02,9.10
2019,10,20,17,03,9.10
2019,10,20,17,04,9.10
2019,10,20,17,05,9.10
2019,10,20,17,06,9.10
2019,10,20,17,07,9.10
2019,10,20,17,08,9.10
2019,10,20,17,09,9.10
2019,10,20,17,10,9.10
2019,10,20,17,11,9.10
2019,10,20,17,12,9.10
2019,10,20,17,13,9.10
2019,10,20,17,14,9.10
2019,10,20,17,15,9.10
2019,10,20,17,16,9.10
2019,10,20,17,17,9.10
2019,10,20,17,18,9.10
2019,10,20,17,19,9.10
2019,10,20,17,20,9.10
2019,10,20,17,21,9.10
2019,10,20,17,22,9.10
2019,10,20,17,23,9.10
2019,10,20,17,24,9.10
2019,10,20,17,25,9.10
2019,10,20,17,26,9.10
2019,10,20,17,27,9.10
2019,10,20,17,28,9.10
2019,10,20,17,29,9.10
2019,10,20,17,30,9.10
2019,10,20,17,31,9.10
2019,10,20,17,32,9.10
2019,10,20,17,33,9.10
2019,10,20,17,34,9.00
2019,10,20,17,35,9.00
2019,10,20,17,36,9.00
2019,10,20,17,37,9.00
2019,10,20,17,38,9.00
2019,10,20,17,39,9.00
2019,10,20,17,40,9.00
2019,10,20,17,41,9.00
2019,10,20,17,42,9.00
2019,10,20,17,43,9.00
2019,10,20,17,44,9.00
2019,10,20,17,45,9.00
2019,10,20,17,46,9.00
2019,10,20,17,47,9.00
2019,10,20,17,48,9.00
2019,10,20,17,49,9.00
2019,10,20,17,50,9.00
2019,10,20,17,51,9.00
2019,10,20,17,52,9.10
2019,10,20,17,53,9.10
2019,10,20,17,54,9.10
2019,10,20,17,55,9.10
2019,10,20,17,56,9.10
2019,10,20,17,57,9.10
2019,10,20,17,58,9.10
2019,10,20,17,59,9.10
2019,10,20,18,00,9.10
2019,10,20,18,01,9.10
2019,10,20,18,02,9.10
2019,10,20,18,03,9.10
2019,10,20,18,04,9.10
2019,10,20,18,05,9.10
2019,10,20,18,06,9.10
2019,10,20,18,07,9.10
2019,10,20,18,08,9.10
2019,10,20,18,09,9.10
2019,10,20,18,10,9.10
2019,10,20,18,11,9.00
2019,10,20,18,12,9.00
2019,10,20,18,13,9.00
2019,10,20,18,14,9.00
2019,10,20,18,15,9.00
2019,10,20,18,16,9.00
2019,10,20,18,17,9.00
2019,10,20,18,18,9.00
2019,10,20,18,19,9.00
2019,10,20,18,20,9.00
2019,10,20,18,21,9.00
2019,10,20,18,22,9.00
2019,10,20,18,23,9.00
2019,10,20,18,24,9.00
2019,10,20,18,25,9.00
2019,10,20,18,26,8.90
2019,10,20,18,27,8.90
2019,10,20,18,28,8.90
2019,10,20,18,29,8.90
2019,10,20,18,30,8.90
2019,10,20,18,31,8.90
2019,10,20,18,32,8.90
2019,10,20,18,33,8.90
2019,10,20,18,34,8.90
2019,10,20,18,35,8.90
2019,10,20,18,36,8.90
2019,10,20,18,37,8.90
2019,10,20,18,38,8.90
2019,10,20,18,39,8.90
2019,10,20,18,40,8.90
2019,10,20,18,41,8.90
2019,10,20,18,42,8.90
2019,10,20,18,43,8.90
2019,10,20,18,44,8.90
2019,10,20,18,45,8.90
2019,10,20,18,46,8.90
2019,10,20,18,47,8.90
2019,10,20,18,48,8.90
2019,10,20,18,49,8.90
2019,10,20,18,50,8.90
2019,10,20,18,51,8.90
2019,10,20,18,52,8.90
2019,10,20,18,53,8.90
2019,10,20,18,54,8.90
2019,10,20,18,55,8.90
2019,10,20,18,56,8.90
2019,10,20,18,57,8.90
2019,10,20,18,58,8.90
2019,10,20,18,59,8.90
2019,10,20,19,00,8.90
2019,10,20,19,01,8.90
2019,10,20,19,02,8.90
2019,10,20,19,03,8.90
2019,10,20,19,04,8.90
2019,10,20,19,05,8.90
2019,10,20,19,06,8.90
2019,10,20,19,07,8.90
2019,10,20,19,08,8.90
2019,10,20,19,09,8.90
2019,10,20,19,10,8.90
2019,10,20,19,11,8.90
2019,10,20,19,12,8.90
2019,10,20,19,13,8.90
2019,10,20,19,14,8.90
2019,10,20,19,15,8.90
2019,10,20,19,16,8.90
2019,10,20,19,17,8.90
2019,10,20,19,18,8.90
2019,10,20,19,19,8.90
2019,10,20,19,20,8.90
2019,10,20,19,21,8.90
2019,10,20,19,22,8.90
2019,10,20,19,23,8.90
2019,10,20,19,24,8.90
2019,10,20,19,25,8.90
2019,10,20,19,26,8.90
2019,10,20,19,27,8.90
2019,10,20,19,28,8.90
2019,10,20,19,29,8.90
2019,10,20,19,30,8.90
2019,10,20,19,31,8.90
2019,10,20,19,32,8.90
2019,10,20,19,33,8.90
2019,10,20,19,34,8.90
2019,10,20,19,35,8.90
2019,10,20,19,36,8.90
2019,10,20,19,37,8.90
2019,10,20,19,38,8.90
2019,10,20,19,39,8.90
2019,10,20,19,40,8.90
2019,10,20,19,41,8.90
2019,10,20,19,42,8.90
2019,10,20,19,43,8.90
2019,10,20,19,44,8.90
2019,10,20,19,45,8.90
2019,10,20,19,46,8.90
2019,10,20,19,47,8.90
2019,10,20,19,48,8.90
2019,10,20,19,49,8.90
2019,10,20,19,50,8.90
2019,10,20,19,51,8.90
2019,10,20,19,52,8.90
2019,10,20,19,53,8.90
2019,10,20,19,54,8.90
2019,10,20,19,55,8.90
2019,10,20,19,56,8.90
2019,10,20,19,57,8.90
2019,10,20,19,58,8.90
2019,10,20,19,59,8.90
2019,10,20,20,00,8.90
2019,10,20,20,01,8.90
2019,10,20,20,02,8.90
2019,10,20,20,03,8.90
2019,10,20,20,04,8.90
2019,10,20,20,05,8.80
2019,10,20,20,06,8.80
2019,10,20,20,07,8.80
2019,10,20,20,08,8.80
2019,10,20,20,09,8.80
2019,10,20,20,10,8.80
2019,10,20,20,11,8.80
2019,10,20,20,12,8.80
2019,10,20,20,13,8.80
2019,10,20,20,14,8.80
2019,10,20,20,15,8.80
2019,10,20,20,16,8.80
2019,10,20,20,17,8.80
2019,10,20,20,18,8.80
2019,10,20,20,19,8.80
2019,10,20,20,20,8.80
2019,10,20,20,21,8.80
2019,10,20,20,22,8.80
2019,10,20,20,23,8.80
2019,10,20,20,24,8.80
2019,10,20,20,25,8.80
2019,10,20,20,26,8.80
2019,10,20,20,27,8.80
2019,10,20,20,28,8.80
2019,10,20,20,29,8.80
2019,10,20,20,30,8.80
2019,10,20,20,31,8.80
2019,10,20,20,32,8.80
2019,10,20,20,33,8.80
2019,10,20,20,34,8.80
2019,10,20,20,35,8.80
2019,10,20,20,36,8.80
2019,10,20,20,37,8.80
2019,10,20,20,38,8.80
2019,10,20,20,39,8.80
2019,10,20,20,40,8.80
2019,10,20,20,41,8.80
2019,10,20,20,42,8.80
2019,10,20,20,43,8.80
2019,10,20,20,44,8.80
2019,10,20,20,45,8.80
2019,10,20,20,46,8.80
2019,10,20,20,47,8.80
2019,10,20,20,48,8.80
2019,10,20,20,49,8.80
2019,10,20,20,50,8.80
2019,10,20,20,51,8.80
2019,10,20,20,52,8.80
2019,10,20,20,53,8.80
2019,10,20,20,54,8.80
2019,10,20,20,55,8.80
2019,10,20,20,56,8.80
2019,10,20,20,57,8.80
2019,10,20,20,58,8.80
2019,10,20,20,59,8.80
2019,10,20,21,00,8.80
2019,10,20,21,01,8.80
2019,10,20,21,02,8.80
2019,10,20,21,03,8.80
2019,10,20,21,04,8.80
2019,10,20,21,05,8.70
2019,10,20,21,06,8.70
2019,10,20,21,07,8.70
2019,10,20,21,08,8.70
2019,10,20,21,09,8.70
2019,10,20,21,10,8.70
2019,10,20,21,11,8.70
2019,10,20,21,12,8.70
2019,10,20,21,13,8.70
2019,10,20,21,14,8.70
2019,10,20,21,15,8.70
2019,10,20,21,16,8.70
2019,10,20,21,17,8.70
2019,10,20,21,18,8.70
2019,10,20,21,19,8.70
2019,10,20,21,20,8.70
2019,10,20,21,21,8.70
2019,10,20,21,22,8.70
2019,10,20,21,23,8.70
2019,10,20,21,24,8.70
2019,10,20,21,25,8.70
2019,10,20,21,26,8.70
2019,10,20,21,27,8.70
2019,10,20,21,28,8.70
2019,10,20,21,29,8.70
2019,10,20,21,30,8.60
2019,10,20,21,31,8.60
2019,10,20,21,32,8.60
2019,10,20,21,33,8.60
2019,10,20,21,34,8.60
2019,10,20,21,35,8.60
2019,10,20,21,36,8.60
2019,10,20,21,37,8.60
2019,10,20,21,38,8.60
2019,10,20,21,39,8.60
2019,10,20,21,40,8.60
2019,10,20,21,41,8.60
2019,10,20,21,42,8.50
2019,10,20,21,43,8.50
2019,10,20,21,44,8.50
2019,10,20,21,45,8.50
2019,10,20,21,46,8.50
2019,10,20,21,47,8.40
2019,10,20,21,48,8.40
2019,10,20,21,49,8.40
2019,10,20,21,50,8.40
2019,10,20,21,51,8.40
2019,10,20,21,52,8.40
2019,10,20,21,53,8.40
2019,10,20,21,54,8.40
2019,10,20,21,55,8.40
2019,10,20,21,56,8.40
2019,10,20,21,57,8.40
2019,10,20,21,58,8.40
2019,10,20,21,59,8.50
2019,10,20,22,00,8.50
2019,10,20,22,01,8.50
2019,10,20,22,02,8.50
2019,10,20,22,03,8.50
2019,10,20,22,04,8.50
2019,10,20,22,05,8.50
2019,10,20,22,06,8.50
2019,10,20,22,07,8.50
2019,10,20,22,08,8.50
2019,10,20,22,09,8.50
2019,10,20,22,10,8.50
2019,10,20,22,11,8.50
2019,10,20,22,12,8.50
2019,10,20,22,13,8.50
2019,10,20,22,14,8.50
2019,10,20,22,15,8.50
2019,10,20,22,16,8.50
2019,10,20,22,17,8.50
2019,10,20,22,18,8.60
2019,10,20,22,19,8.50
2019,10,20,22,20,8.50
2019,10,20,22,21,8.60
2019,10,20,22,22,8.60
2019,10,20,22,23,8.60
2019,10,20,22,24,8.60
2019,10,20,22,25,8.60
2019,10,20,22,26,8.60
2019,10,20,22,27,8.60
2019,10,20,22,28,8.60
2019,10,20,22,29,8.60
2019,10,20,22,30,8.60
2019,10,20,22,31,8.60
2019,10,20,22,32,8.60
2019,10,20,22,33,8.60
2019,10,20,22,34,8.60
2019,10,20,22,35,8.60
2019,10,20,22,36,8.60
2019,10,20,22,37,8.60